White Plains, CT

5:31 AM EDT on September 16, 2019 (GMT -0400)
Westchester County

Weather History for KHPN - July, 2019

Change the Weather History Date:

Saturday, July 13, 2019

  Actual Average Record
Temperature  
Mean Temperature 75 °F -  
Max Temperature 84 °F 80 °F 93 °F (1983)
Min Temperature 66 °F 62 °F 55 °F (2001)
Cooling Degree Days 10    
Growing Degree Days 25 (Base 50)    
Moisture  
Dew Point 63 °F    
Average Humidity 65    
Maximum Humidity 87    
Minimum Humidity 46    
Precipitation  
Precipitation 0.00 in - - ()
Sea Level Pressure  
Sea Level Pressure 29.90 in    
Wind  
Wind Speed 7 mph (West)    
Max Wind Speed 9 mph    
Max Gust Speed -    
Visibility 10 miles    
Events      
Averages and records for this station are not official NWS values.
T = Trace of Precipitation, MM = Missing Value Source: NWS Daily Summary

Daily Weather History Graph

Daily Weather History Graph

Search for Another Location

Airport or City:

Astronomy

Jul. 13, 2019 Rise Set
Actual Time 5:33 AM EDT 8:27 PM EDT
Civil Twilight 5:00 AM EDT 8:59 PM EDT
Nautical Twilight 4:19 AM EDT 9:41 PM EDT
Astronomical Twilight 3:31 AM EDT 10:28 PM EDT
Moon 5:46 PM EDT (7/13) 2:52 AM EDT (7/13)
Length of Visible Light 15h 58m
Length of Day
14h 53m
Waxing Gibbous, 90% of the Moon is Illuminated
Jul 13
Waxing Gibbous
Jul 16
Full
Jul 24
Last Quarter
Jul 31
New
Aug 7
First Quarter

Hourly Weather History & Observations

Time (EDT) Temp. Heat Index Dew Point Humidity Pressure Visibility Wind Dir Wind Speed Gust Speed Precip Events Conditions
12:56 AM 71.1 °F - 61.0 °F 70% 29.84 in 10.0 mi NW 8.1 mph - N/A   Clear
1:56 AM 70.0 °F - 62.1 °F 76% 29.85 in 10.0 mi WNW 8.1 mph - N/A   Clear
2:56 AM 69.1 °F - 63.0 °F 81% 29.85 in 10.0 mi WNW 8.1 mph - N/A   Clear
3:56 AM 66.9 °F - 63.0 °F 87% 29.86 in 10.0 mi WNW 5.8 mph - N/A   Clear
4:56 AM 66.9 °F - 63.0 °F 87% 29.87 in 10.0 mi NW 8.1 mph - N/A   Clear
5:56 AM 66.9 °F - 62.1 °F 84% 29.89 in 10.0 mi NW 9.2 mph - N/A   Clear
6:56 AM 68.0 °F - 63.0 °F 84% 29.91 in 10.0 mi WNW 5.8 mph - N/A   Clear
7:56 AM 72.0 °F - 63.0 °F 73% 29.93 in 10.0 mi NNW 4.6 mph - N/A   Clear
8:56 AM 73.9 °F - 63.0 °F 68% 29.94 in 10.0 mi WNW 4.6 mph - N/A   Clear
9:56 AM 77.0 °F - 63.0 °F 62% 29.93 in 10.0 mi WNW 6.9 mph - N/A   Partly Cloudy
10:56 AM 77.0 °F - 60.1 °F 56% 29.94 in 10.0 mi Variable 6.9 mph - N/A   Scattered Clouds
11:56 AM 78.1 °F - 60.1 °F 54% 29.94 in 10.0 mi NW 6.9 mph - N/A   Clear
12:56 PM 80.1 °F 81.1 °F 61.0 °F 52% 29.93 in 10.0 mi WSW 6.9 mph - N/A   Partly Cloudy
1:56 PM 80.1 °F 80.9 °F 60.1 °F 50% 29.92 in 10.0 mi West 6.9 mph - N/A   Clear
2:56 PM 82.9 °F 83.7 °F 62.1 °F 49% 29.90 in 10.0 mi WNW 9.2 mph - N/A   Clear
3:56 PM 82.9 °F 83.7 °F 62.1 °F 49% 29.90 in 10.0 mi Calm Calm - N/A   Clear
4:56 PM 84.0 °F 84.4 °F 61.0 °F 46% 29.89 in 10.0 mi WNW 6.9 mph - N/A   Clear
5:56 PM 84.0 °F 84.5 °F 62.1 °F 47% 29.88 in 10.0 mi West 5.8 mph - N/A   Partly Cloudy
6:56 PM 82.9 °F 84.0 °F 63.0 °F 51% 29.87 in 10.0 mi West 6.9 mph - N/A   Clear
7:56 PM 79.0 °F - 64.9 °F 62% 29.88 in 10.0 mi South 3.5 mph - N/A   Clear
8:56 PM 75.9 °F - 66.0 °F 71% 29.89 in 10.0 mi South 4.6 mph - N/A   Clear
9:56 PM 75.9 °F - 66.0 °F 71% 29.91 in 10.0 mi WSW 4.6 mph - N/A   Clear
10:56 PM 78.1 °F - 63.0 °F 60% 29.90 in 10.0 mi SW 3.5 mph - N/A   Clear
11:56 PM 73.0 °F - 64.0 °F 73% 29.90 in 10.0 mi West 4.6 mph - N/A   Clear